TimeEDT,TemperatureF,Dew PointF,Humidity,Sea Level PressureIn,VisibilityMPH,Wind Direction,Wind SpeedMPH,Gust SpeedMPH,PrecipitationIn,Events,Conditions,WindDirDegrees,DateUTC
12:51 AM,79.0,75.9,90,29.87,6.0,WSW,11.5,19.6,N/A,,Clear,240,2013-07-23 04:51:00
1:51 AM,79.0,75.0,88,29.87,7.0,WSW,13.8,-,N/A,,Clear,240,2013-07-23 05:51:00
2:51 AM,80.1,75.0,85,29.86,6.0,WSW,12.7,-,N/A,,Haze,240,2013-07-23 06:51:00
3:51 AM,79.0,75.0,88,29.85,6.0,WSW,11.5,18.4,N/A,,Clear,240,2013-07-23 07:51:00
4:51 AM,79.0,75.0,88,29.83,7.0,WSW,13.8,20.7,N/A,,Clear,240,2013-07-23 08:51:00
5:51 AM,79.0,75.0,88,29.84,7.0,WSW,12.7,-,N/A,,Clear,240,2013-07-23 09:51:00
6:51 AM,79.0,75.0,88,29.85,6.0,WSW,11.5,-,N/A,,Clear,240,2013-07-23 10:51:00
7:51 AM,81.0,75.0,82,29.85,7.0,SW,11.5,20.7,N/A,,Clear,230,2013-07-23 11:51:00
8:51 AM,82.9,73.9,74,29.85,8.0,WSW,17.3,24.2,N/A,,Clear,240,2013-07-23 12:51:00
9:51 AM,84.0,73.9,72,29.84,8.0,WSW,11.5,-,N/A,,Clear,240,2013-07-23 13:51:00
10:51 AM,84.0,73.9,72,29.83,8.0,WSW,12.7,-,N/A,,Mostly Cloudy,240,2013-07-23 14:51:00
11:32 AM,84.2,73.4,70,29.82,9.0,WSW,12.7,19.6,N/A,,Scattered Clouds,240,2013-07-23 15:32:00
11:51 AM,84.0,73.9,72,29.83,9.0,WSW,12.7,-,N/A,,Clear,240,2013-07-23 15:51:00
12:51 PM,84.0,73.0,69,29.82,9.0,WSW,12.7,21.9,N/A,,Partly Cloudy,240,2013-07-23 16:51:00
1:51 PM,84.0,73.9,72,29.80,8.0,SW,11.5,19.6,N/A,,Clear,230,2013-07-23 17:51:00
2:51 PM,82.9,73.9,74,29.79,8.0,SW,13.8,-,N/A,,Clear,230,2013-07-23 18:51:00
3:51 PM,82.0,73.9,76,29.77,8.0,SW,15.0,21.9,N/A,,Clear,230,2013-07-23 19:51:00
4:51 PM,82.9,73.9,74,29.76,7.0,SW,12.7,20.7,N/A,,Clear,220,2013-07-23 20:51:00
5:51 PM,81.0,73.9,79,29.76,7.0,SW,11.5,23.0,N/A,,Clear,230,2013-07-23 21:51:00
6:51 PM,80.1,73.9,81,29.75,6.0,SW,16.1,21.9,N/A,,Haze,230,2013-07-23 22:51:00
7:51 PM,79.0,73.9,84,29.75,6.0,SW,12.7,21.9,N/A,,Haze,230,2013-07-23 23:51:00
8:51 PM,79.0,73.9,84,29.76,7.0,WSW,15.0,20.7,N/A,,Clear,240,2013-07-24 00:51:00
9:51 PM,79.0,73.9,84,29.78,7.0,WSW,15.0,-,N/A,,Partly Cloudy,240,2013-07-24 01:51:00
10:51 PM,79.0,75.0,88,29.80,7.0,SW,12.7,-,N/A,,Overcast,230,2013-07-24 02:51:00
11:51 PM,78.1,75.0,90,29.80,6.0,WSW,11.5,-,N/A,,Overcast,240,2013-07-24 03:51:00